Location: NJAA Observatory
(40.6819°N, 74.8979°W)
Time: 18:33:44
(UTC-04:00)

Iridium 56 - Visible Passes

Search period start: 30 April 2016 00:00
Search period end: 10 May 2016 00:00
Orbit: 776 x 779 km, 86.4° (Epoch: 30 April)

Date Brightness Start Highest point End Pass type
(mag) Time Alt. Az. Time Alt. Az. Time Alt. Az.
30 Apr 6.5 21:51:34 10° SSW 21:56:32 45° W 22:01:34 10° N visible
01 May 5.6 21:17:45 10° S 21:22:58 84° W 21:28:12 10° N visible
02 May 5.7 20:44:27 10° SSE 20:49:29 52° E 20:54:33 10° NNE visible
02 May 8.1 22:27:06 10° WSW 22:30:33 18° WNW 22:34:01 10° NNW visible
03 May 7.2 21:52:08 10° SW 21:56:44 32° W 22:01:23 10° NNW visible
04 May 6.1 21:17:57 10° SSW 21:23:04 58° W 21:28:14 10° N visible
05 May 5.5 20:44:21 10° S 20:49:32 77° E 20:54:45 10° N visible
05 May 8.4 22:28:51 10° W 22:30:52 12° WNW 22:32:53 10° NW visible
06 May 7.9 21:52:58 10° SW 21:56:58 22° WNW 22:01:01 10° NNW visible
07 May 6.9 21:18:22 10° SSW 21:23:14 40° W 21:28:08 10° NNW visible
08 May 5.8 20:44:24 10° S 20:49:36 75° W 20:54:51 10° N visible
09 May 8.3 21:54:12 10° WSW 21:57:16 16° WNW 22:00:20 10° NW visible
